Weather reports worldwide

Advertisment
Weybourne, United Kingdom (3488): temperature & dewpoint: 18.06.2017 23:00:00 - 24.06.2017 23:00:00 (BST)Weybourne, United Kingdom (3488): temperature 5cm: 18.06.2017 23:00:00 - 24.06.2017 23:00:00 (BST)Weybourne, United Kingdom (3488): wind speed & gusts: 18.06.2017 23:00:00 - 24.06.2017 23:00:00 (BST)Weybourne, United Kingdom (3488): wind direction: 18.06.2017 23:00:00 - 24.06.2017 23:00:00 (BST)Weybourne, United Kingdom (3488): reduced air pressure: 18.06.2017 23:00:00 - 24.06.2017 23:00:00 (BST)Weybourne, United Kingdom (3488): visibility: 18.06.2017 23:00:00 - 24.06.2017 23:00:00 (BST)Weybourne, United Kingdom (3488): precipitation: 18.06.2017 23:00:00 - 24.06.2017 23:00:00 (BST)
Date & Time tt [°C] td [°C] tt 5cm [°C] ff [km/h] ff [kn] fx [km/h] fx [kn] dd ppp [hPa] vv [km] rr [mm]
24.06.2017 23:00:00 16,9 12,0 - 18 10 - - W 1009,9 50 0,0
24.06.2017 22:00:00 18,0 13,2 - 21 11 - - W 1009,7 50 0,0
24.06.2017 21:00:00 18,3 14,6 - 2 1 - - NNE 1009,4 45 0,0
24.06.2017 20:00:00 20,1 15,9 - 13 7 - - WNW 1009,1 40 0,0
24.06.2017 19:00:00 19,4 15,5 - 9 5 - - WNW 1009,2 45 0,0
24.06.2017 18:00:00 20,5 16,2 - 16 9 - - WNW 1009,5 50 0,0
24.06.2017 17:00:00 19,7 14,9 - 8 4 - - NW 1010,1 50 0,0
24.06.2017 16:00:00 22,0 14,7 - 26 14 - - W 1010,4 50 0,0
24.06.2017 15:00:00 21,7 13,9 - 26 14 - - WSW 1010,9 50 0,0
24.06.2017 14:00:00 21,9 14,6 - 29 16 - - WSW 1011,3 50 0,0
24.06.2017 13:00:00 18,4 14,6 - 15 8 - - WNW 1011,8 40 0,0
24.06.2017 12:00:00 17,9 13,8 - 21 11 - - WNW 1011,8 45 0,0
24.06.2017 11:00:00 19,2 14,4 - 18 10 - - WNW 1011,8 50 0,0
24.06.2017 10:00:00 17,3 13,3 - 24 13 - - WNW 1011,8 50 0,0
24.06.2017 09:00:00 17,4 13,5 - 24 13 - - WNW 1012,0 50 0,0
24.06.2017 08:00:00 17,4 13,7 - 26 14 - - WNW 1011,9 50 0,0
24.06.2017 07:00:00 17,7 14,3 - 31 17 - - WSW 1011,2 45 0,0
24.06.2017 06:00:00 16,9 14,3 - 26 14 - - WSW 1011,1 45 0,0
24.06.2017 05:00:00 16,8 14,0 - 28 15 - - SW 1011,2 45 0,0
24.06.2017 04:00:00 16,8 13,9 - 26 14 - - WSW 1011,4 50 0,0
24.06.2017 03:00:00 16,8 13,7 - 26 14 - - WSW 1011,6 50 0,0
24.06.2017 02:00:00 16,9 13,8 - 26 14 - - SW 1011,9 50 0,0
24.06.2017 01:00:00 17,0 13,8 - 26 14 - - SW 1012,3 40 0,0
24.06.2017 00:00:00 17,9 13,3 - 26 14 - - WSW 1012,7 50 0,0
23.06.2017 23:00:00 18,1 13,6 - 24 13 - - WSW 1012,7 50 0,0
23.06.2017 22:00:00 18,4 13,9 - 24 13 - - WSW 1012,8 45 0,0
23.06.2017 21:00:00 18,7 13,8 - 31 17 - - WSW 1012,6 40 0,0
23.06.2017 20:00:00 19,1 14,1 - 28 15 46 25 WSW 1012,8 50 0,0
23.06.2017 19:00:00 19,5 13,9 - 34 18 46 25 SW 1012,6 30 0,0
23.06.2017 18:00:00 20,1 14,2 - 31 17 48 26 WSW 1012,7 35 0,0
23.06.2017 17:00:00 21,0 14,6 - 34 18 54 29 WSW 1012,8 50 0,0
23.06.2017 16:00:00 20,8 14,1 - 35 19 50 27 WSW 1012,9 40 0,0
23.06.2017 15:00:00 21,1 14,5 - 37 20 57 31 WSW 1013,1 35 0,0
23.06.2017 14:00:00 18,5 13,8 - 37 20 54 29 WSW 1013,2 30 0,0
23.06.2017 13:00:00 16,7 14,5 - 28 15 48 26 WSW 1013,3 19 0,4
23.06.2017 12:00:00 15,6 12,8 - 35 19 52 28 WSW 1013,6 4,9 0,0
23.06.2017 11:00:00 18,1 12,7 - 34 18 52 28 WSW 1013,4 50 0,0
23.06.2017 10:00:00 16,5 11,9 - 28 15 - - WSW 1013,5 45 0,0
23.06.2017 09:00:00 15,4 11,4 - 31 17 - - WSW 1013,1 40 0,0
23.06.2017 08:00:00 15,1 11,9 - 28 15 - - WSW 1013,0 45 0,0
23.06.2017 07:00:00 14,6 12,0 - 22 12 - - SW 1012,6 45 0,0
23.06.2017 06:00:00 14,3 11,5 - 18 10 - - SW 1012,5 50 0,0
23.06.2017 05:00:00 13,9 12,2 - 18 10 - - SW 1012,6 30 0,0
23.06.2017 04:00:00 13,7 12,0 - 15 8 - - SW 1012,7 35 0,0
23.06.2017 03:00:00 13,1 11,2 - 15 8 - - SW 1012,9 50 0,0
23.06.2017 02:00:00 13,5 11,4 - 15 8 - - SW 1012,6 35 0,0
23.06.2017 01:00:00 14,4 11,5 - 15 8 - - W 1012,7 50 0,0
23.06.2017 00:00:00 15,2 11,6 - 16 9 - - W 1012,4 40 0,0
22.06.2017 23:00:00 15,8 12,1 - 26 14 - - W 1012,5 40 0,0
22.06.2017 22:00:00 16,1 13,0 - 21 11 - - W 1012,0 50 0,0
22.06.2017 21:00:00 17,2 13,3 - 16 9 - - W 1011,7 50 0,0
22.06.2017 20:00:00 19,1 14,0 - 26 14 - - W 1011,1 28 0,0
22.06.2017 19:00:00 19,0 14,6 - 28 15 - - W 1010,7 45 0,0
22.06.2017 18:00:00 17,7 14,8 - 34 18 46 25 WNW 1010,2 27 0,0
22.06.2017 17:00:00 17,8 15,0 - 37 20 55 30 WNW 1009,9 40 0,0
22.06.2017 16:00:00 18,3 15,6 - 41 22 54 29 W 1009,3 20 0,0
22.06.2017 15:00:00 19,4 15,1 - 31 17 46 25 WSW 1008,9 35 0,0
22.06.2017 14:00:00 18,7 15,2 - 24 13 - - WSW 1008,9 23 0,0
22.06.2017 13:00:00 18,7 16,9 - 21 11 - - WSW 1008,7 11 0,0
22.06.2017 12:00:00 18,9 17,6 - 26 14 - - WSW 1008,5 7 0,6
22.06.2017 11:00:00 20,2 17,7 - 26 14 - - WSW 1008,4 11 0,0
22.06.2017 10:00:00 22,7 19,0 - 22 12 - - W 1007,9 16 0,0
22.06.2017 09:00:00 22,8 19,3 - 26 14 - - W 1008,1 18 0,0
22.06.2017 08:00:00 22,3 18,9 - 28 15 - - WSW 1008,0 18 0,0
22.06.2017 07:00:00 21,4 18,9 - 26 14 - - SW 1007,9 13 0,0
22.06.2017 06:00:00 20,7 18,5 - 24 13 - - SW 1007,7 11 0,0
22.06.2017 05:00:00 20,4 18,1 - 28 15 - - SW 1007,6 11 0,0
22.06.2017 04:00:00 20,4 17,7 - 24 13 - - SSW 1007,9 11 0,0
22.06.2017 03:00:00 20,3 16,6 - 28 15 - - SSW 1008,5 12 0,0
22.06.2017 02:00:00 20,9 15,2 - 22 12 - - SSW 1009,3 35 0,0
22.06.2017 01:00:00 20,7 15,1 - 28 15 - - S 1010,0 30 0,0
22.06.2017 00:00:00 20,6 15,1 - 29 16 - - S 1010,5 30 0,0
21.06.2017 23:00:00 20,6 15,3 - 34 18 - - S 1010,6 35 0,0
21.06.2017 22:00:00 20,6 15,5 - 29 16 - - S 1011,3 35 0,0
21.06.2017 21:00:00 20,9 15,8 - 29 16 - - SSE 1011,1 30 0,0
21.06.2017 20:00:00 21,6 16,0 - 29 16 - - SSE 1012,0 40 0,0
21.06.2017 19:00:00 22,7 16,8 - 13 7 - - SSE 1013,2 40 0,0
21.06.2017 18:00:00 23,3 16,4 - 16 9 - - SE 1013,2 35 0,0
21.06.2017 17:00:00 25,5 17,6 - 18 10 - - SE 1013,2 26 0,0
21.06.2017 16:00:00 25,2 17,1 - 18 10 - - SE 1014,3 28 0,0
21.06.2017 15:00:00 23,4 16,4 - 21 11 - - SSE 1015,3 23 0,0
21.06.2017 14:00:00 24,0 16,4 - 21 11 - - SSE 1015,6 21 0,0
21.06.2017 13:00:00 22,1 14,9 - 24 13 - - SSE 1016,0 35 0,0
21.06.2017 12:00:00 22,4 15,3 - 21 11 - - SE 1016,7 40 0,0
21.06.2017 11:00:00 21,5 14,9 - 18 10 - - SE 1017,1 35 0,0
21.06.2017 10:00:00 20,1 13,9 20,3 22 12 - - ESE 1017,4 35 0,0
21.06.2017 09:00:00 18,8 14,1 - 18 10 - - ESE 1017,9 35 0,0
21.06.2017 08:00:00 16,7 12,9 - 18 10 - - ESE 1018,4 30 0,0
21.06.2017 07:00:00 15,9 12,8 - 18 10 - - ESE 1018,5 27 0,0
21.06.2017 06:00:00 15,0 12,5 - 21 11 - - ESE 1018,5 28 0,0
21.06.2017 05:00:00 14,1 12,5 - 18 10 - - E 1018,7 29 0,0
21.06.2017 04:00:00 14,2 12,5 - 21 11 - - E 1019,0 30 0,0
21.06.2017 03:00:00 14,2 12,4 - 21 11 - - E 1019,5 25 0,0
21.06.2017 02:00:00 14,2 12,3 - 21 11 - - E 1019,9 27 0,0
21.06.2017 01:00:00 14,2 12,3 - 21 11 - - E 1020,5 35 0,0
21.06.2017 00:00:00 14,2 11,9 - 24 13 - - E 1020,5 24 0,0
20.06.2017 23:00:00 14,3 11,7 - 26 14 - - E 1020,5 30 0,0
20.06.2017 22:00:00 14,3 11,6 - 22 12 - - E 1020,5 30 0,0
20.06.2017 21:00:00 14,8 11,6 - 28 15 - - E 1020,5 18 0,0
20.06.2017 20:00:00 15,4 12,6 - 28 15 - - E 1020,5 20 0,0
20.06.2017 19:00:00 16,2 13,6 - 31 17 - - E 1020,3 22 0,0
20.06.2017 18:00:00 16,3 13,8 - 31 17 - - E 1020,3 19 0,0
20.06.2017 17:00:00 16,8 14,3 - 31 17 - - E 1020,5 23 0,0
20.06.2017 16:00:00 16,6 14,6 - 28 15 - - E 1020,8 12 0,0
20.06.2017 15:00:00 16,6 15,0 - 29 16 - - E 1020,8 24 0,0
20.06.2017 14:00:00 16,0 15,7 - 28 15 - - E 1020,6 11 0,0
20.06.2017 13:00:00 15,6 15,1 - 28 15 - - E 1020,8 21 0,0
20.06.2017 12:00:00 15,4 15,2 - 29 16 - - E 1020,8 3,5 0,0
20.06.2017 11:00:00 15,9 15,7 - 26 14 - - E 1020,6 1,6 0,0
20.06.2017 10:00:00 17,5 16,0 22,1 24 13 - - E 1020,0 20 0,0
20.06.2017 09:00:00 17,5 16,3 - 24 13 - - E 1019,4 11 0,0
20.06.2017 08:00:00 16,8 16,1 - 22 12 - - E 1019,1 4,5 0,0
20.06.2017 07:00:00 18,9 16,2 - 8 4 - - SE 1018,6 6 0,0
20.06.2017 06:00:00 17,3 16,4 - 13 7 - - SE 1018,1 7 0,0
20.06.2017 05:00:00 16,5 16,1 - 13 7 - - E 1018,2 2,0 0,0
20.06.2017 04:00:00 17,6 16,1 - 11 6 - - ENE 1018,0 4,3 0,0
20.06.2017 03:00:00 18,8 16,4 - 15 8 - - SSW 1017,7 15 0,0
20.06.2017 02:00:00 18,1 15,8 - 4 2 - - NW 1018,0 7 0,0
20.06.2017 01:00:00 19,7 16,1 - 11 6 - - SSW 1018,1 15 0,0
20.06.2017 00:00:00 20,6 16,1 - 15 8 - - SSW 1017,9 15 0,0
19.06.2017 23:00:00 21,8 16,5 - 16 9 - - S 1018,0 27 0,0
19.06.2017 22:00:00 22,1 17,1 - 18 10 - - S 1017,9 27 0,0
19.06.2017 21:00:00 23,3 17,2 - 16 9 - - SSE 1017,8 30 0,0
19.06.2017 20:00:00 24,3 18,6 - 11 6 - - ESE 1017,8 35 0,0
19.06.2017 19:00:00 22,8 18,2 - 11 6 - - E 1017,7 12 0,0
19.06.2017 18:00:00 22,4 17,9 - 18 10 - - E 1017,7 10 0,0
19.06.2017 17:00:00 23,1 18,0 - 21 11 - - E 1017,8 14 0,0
19.06.2017 16:00:00 22,4 17,7 - 22 12 - - E 1018,3 16 0,0
19.06.2017 15:00:00 23,8 16,8 - 24 13 - - E 1018,5 22 0,0
19.06.2017 14:00:00 22,1 17,1 - 22 12 - - E 1019,2 19 0,0
19.06.2017 13:00:00 24,3 17,5 - 22 12 - - E 1019,7 27 0,0
19.06.2017 12:00:00 23,6 17,6 - 21 11 - - E 1020,1 35 0,0
19.06.2017 11:00:00 23,4 17,9 - 18 10 - - E 1020,1 30 0,0
19.06.2017 10:00:00 23,8 18,0 25,8 11 6 - - ENE 1020,2 30 0,0
19.06.2017 09:00:00 24,6 18,4 - 15 8 - - S 1020,4 40 0,0
19.06.2017 08:00:00 22,7 17,2 - 16 9 - - S 1020,6 40 0,0
19.06.2017 07:00:00 20,6 15,4 - 8 4 - - S 1020,9 50 0,0
19.06.2017 06:00:00 19,4 14,7 - 11 6 - - S 1020,8 50 0,0
19.06.2017 05:00:00 18,8 15,1 - 26 14 - - S 1020,7 40 0,0
19.06.2017 04:00:00 19,3 15,5 - 26 14 - - S 1020,7 45 0,0
19.06.2017 03:00:00 19,6 15,8 - 24 13 - - S 1021,1 50 0,0
19.06.2017 02:00:00 19,9 16,0 - 24 13 - - S 1021,4 40 0,0
19.06.2017 01:00:00 20,4 16,5 - 24 13 - - S 1021,6 50 0,0
19.06.2017 00:00:00 20,9 16,8 - 24 13 - - S 1021,7 40 0,0
18.06.2017 23:00:00 21,4 17,2 - 22 12 - - S 1021,9 45 0,0

tt = temperature
td = dewpoint
tt 5cm = temperature 5cm
ff = wind speed
fx = gusts
dd = wind direction
ppp = reduced air pressure
vv = visibility
rr = precipitation

Next stations